Theta_e
296 295 295 294 294 293 293 293 292 292 292 291 291 291 291 291 290 290 290 291 290 290 290 291 291 291 291 292 292 292 292 292 292 292 292 292 292 293 293 294 294 295 295 296 296 297 298 299 300 301 302 302 303 304 305 306 307 307 308 308 308 309 309 309 309 309 310 310 311
295 294 294 292 292 292 292 291 291 291 291 291 291 291 291 290 290 290 290 290 290 290 291 291 291 291 291 291 291 291 291 291 291 291 291 291 291 292 292 293 293 294 294 295 295 296 297 298 298 299 300 301 302 302 304 305 306 306 307 307 308 308 309 309 309 309 310 310 311
293 293 292 292 291 291 291 290 290 290 290 291 291 291 291 291 291 291 291 291 291 292 292 291 291 292 292 291 292 291 291 291 291 291 291 291 291 291 291 292 293 293 293 294 294 295 296 296 296 297 298 299 300 301 302 303 305 306 306 307 307 308 308 309 309 309 310 310 310
292 291 291 291 291 290 290 290 290 290 290 291 291 291 292 292 292 292 292 292 292 292 292 292 292 292 292 292 292 292 292 292 291 291 291 291 291 291 291 291 292 292 292 293 293 294 294 295 295 296 297 297 298 299 301 302 303 304 305 306 307 308 308 308 309 310 310 310 310
291 291 291 290 290 290 290 290 290 291 291 291 292 292 292 292 292 292 292 292 292 292 292 292 292 292 292 293 293 293 293 293 292 292 292 292 291 291 291 291 291 292 292 292 293 293 294 294 295 295 296 297 297 298 299 301 302 303 304 306 306 307 308 308 309 310 310 310 311
290 291 291 291 291 291 291 291 291 292 292 292 291 292 292 292 292 292 292 291 291 292 292 292 292 292 292 292 292 292 292 292 292 292 293 292 292 292 292 292 292 292 292 292 292 293 293 294 294 294 295 296 297 298 299 300 301 302 303 304 306 307 307 308 308 309 310 310 310
291 291 291 291 291 291 292 292 292 292 292 291 291 291 291 291 291 291 291 291 291 292 292 291 291 292 292 292 292 292 292 292 292 293 293 293 292 292 292 292 292 292 292 292 292 292 293 293 293 293 294 295 296 297 298 300 300 301 302 303 305 306 307 308 308 308 309 309 310
291 291 291 291 291 291 292 292 292 291 291 291 291 291 291 291 291 291 291 291 291 291 291 291 292 292 292 292 292 292 292 292 293 293 293 293 293 292 292 292 292 292 292 292 292 292 293 293 293 293 294 295 295 296 298 299 299 300 301 302 303 305 306 307 308 308 308 308 308
291 291 291 291 291 291 292 292 291 291 291 291 291 291 291 291 291 291 290 290 290 291 291 291 292 292 292 292 292 292 292 292 292 293 293 293 293 293 292 292 292 291 292 292 292 293 293 293 293 293 293 294 295 295 296 297 298 299 300 301 303 304 306 307 307 308 308 308 308
290 290 290 291 291 291 291 291 291 291 291 291 291 291 291 290 290 290 290 290 290 291 291 291 291 292 292 292 292 292 292 292 292 292 292 293 293 293 292 292 292 292 292 292 293 293 293 293 293 293 293 294 294 295 296 296 297 298 299 300 302 303 305 306 307 308 308 307 307
290 290 290 290 291 291 291 291 291 291 291 291 291 291 291 290 290 290 290 291 290 290 291 291 291 290 290 291 291 291 291 292 292 292 292 292 293 293 292 292 292 292 292 292 293 293 293 293 293 293 293 294 294 294 295 295 296 296 297 298 300 301 303 304 306 307 308 308 307
290 290 290 290 290 290 290 290 290 290 290 290 290 291 290 290 290 290 290 290 290 290 290 290 290 289 289 289 290 290 290 291 291 291 292 292 293 293 293 293 293 292 292 293 293 293 293 293 293 293 293 294 294 294 294 295 295 295 296 297 298 299 300 302 304 306 307 308 308
289 289 290 290 290 290 290 290 290 290 290 290 290 290 290 290 290 290 290 289 289 289 289 289 289 289 289 289 289 290 290 290 290 291 291 291 292 292 292 293 293 293 293 293 293 293 293 293 293 293 293 293 294 294 294 295 295 295 295 296 297 298 299 300 302 304 306 308 308
289 289 289 290 290 290 289 289 290 290 290 289 290 290 289 290 289 289 289 289 289 289 289 289 289 289 289 289 289 290 290 290 290 290 290 290 291 291 292 292 293 293 293 293 293 293 293 293 293 293 293 293 294 294 294 295 295 295 296 296 296 297 298 299 301 303 305 306 307
289 289 289 290 289 289 289 289 289 289 289 289 289 289 289 289 289 289 289 289 289 289 289 289 289 289 289 290 290 290 290 290 290 290 290 290 290 291 291 292 292 293 293 294 294 294 294 294 294 294 294 294 294 294 295 295 296 296 296 296 297 297 298 299 300 302 304 305 307
289 289 289 289 289 289 289 289 289 289 289 289 289 289 289 289 289 289 289 288 289 289 289 289 289 289 289 290 290 290 290 290 290 290 290 290 290 290 291 291 292 292 293 294 294 294 294 294 294 294 294 294 294 294 295 295 296 296 296 297 297 297 298 299 300 301 302 304 305
288 289 289 289 289 289 289 289 289 289 288 288 289 289 289 289 289 289 288 288 288 288 288 289 289 289 289 289 290 290 290 290 290 290 290 290 290 290 291 291 291 292 292 293 293 293 294 294 294 294 294 294 294 294 295 295 295 296 296 297 297 298 298 298 299 300 302 303 304
288 288 289 289 289 289 289 289 289 288 288 288 288 288 289 288 288 288 288 288 288 288 288 288 289 289 289 289 289 289 290 290 290 290 290 290 291 291 291 291 292 292 292 293 293 293 294 294 294 294 294 294 294 295 295 295 295 296 296 296 297 298 298 298 299 300 301 302 304
288 288 288 288 289 289 289 289 288 288 288 288 288 288 288 288 288 288 288 289 289 289 289 288 289 289 289 289 289 290 290 290 290 290 290 291 291 291 291 291 292 292 292 292 293 293 294 294 294 295 295 295 295 295 295 295 295 296 296 296 297 297 298 298 299 300 301 302 303
288 288 288 288 288 289 288 288 288 288 288 288 288 288 288 288 288 288 288 288 289 289 289 289 289 289 289 289 290 290 290 290 291 291 291 291 291 291 291 292 292 292 292 292 293 293 293 294 295 295 295 295 295 295 295 295 296 296 296 296 297 297 298 298 299 300 300 301 303
287 288 288 288 288 288 288 288 288 288 287 287 287 288 288 288 288 288 288 289 289 289 289 289 289 289 289 289 290 290 290 291 291 291 291 292 292 292 292 292 292 292 293 293 293 293 293 294 294 295 295 295 295 295 295 296 296 296 297 297 297 298 298 298 299 300 300 301 302
287 288 288 288 288 288 288 288 288 287 287 287 287 287 287 288 288 288 288 289 289 289 289 289 289 289 289 290 290 290 291 291 292 292 292 293 293 293 294 294 294 294 294 294 294 294 294 294 294 295 295 295 296 296 296 296 296 297 297 298 298 298 298 299 299 300 300 301 302
286 287 287 288 288 288 287 287 287 287 287 286 287 287 287 287 288 288 288 289 289 289 289 289 289 290 290 291 291 291 292 292 292 293 293 293 294 294 295 295 295 295 295 295 295 295 295 295 295 295 295 295 296 296 296 296 297 297 298 298 299 299 299 299 300 300 300 301 302
287 287 287 288 287 287 287 287 286 286 286 286 286 286 287 287 287 288 288 288 288 289 289 289 290 290 291 291 292 292 292 292 292 292 293 293 293 294 294 295 295 295 296 296 296 296 296 295 296 296 296 296 296 296 296 297 297 297 297 298 299 300 300 300 300 301 301 301 302
287 287 287 287 287 287 286 286 285 285 285 286 286 286 287 287 287 287 288 288 288 288 289 289 290 291 291 292 292 292 292 292 292 292 292 292 293 294 294 294 294 295 295 295 295 295 294 294 295 296 296 296 296 296 296 297 297 297 297 298 298 299 300 301 301 301 302 302 302
286 286 286 286 286 286 285 285 285 285 285 285 286 286 286 287 287 287 287 287 288 288 289 289 290 291 291 291 291 291 291 292 292 292 292 292 292 293 293 293 293 294 294 294 293 292 292 293 293 294 295 297 297 296 296 296 297 297 297 297 298 298 299 301 301 302 302 303 303
286 286 285 285 285 285 285 285 285 285 285 285 285 286 286 286 287 287 287 287 288 288 289 289 290 290 290 291 291 291 291 291 292 292 292 292 291 291 291 291 292 293 293 293 292 292 291 292 291 292 293 296 297 297 297 297 297 297 297 297 297 298 299 300 300 301 302 303 303
285 285 285 285 284 284 284 284 284 284 285 285 285 286 286 286 287 287 287 287 288 288 289 289 290 290 291 291 291 291 291 291 291 291 291 291 290 290 290 290 291 292 292 292 291 291 291 291 291 291 291 291 295 296 298 297 297 297 298 297 297 298 298 299 300 301 301 302 303
284 284 284 284 284 284 284 284 284 284 285 285 285 286 286 286 286 287 287 287 287 288 288 289 290 290 290 290 290 291 291 291 291 291 290 290 290 290 290 290 290 291 291 291 291 291 291 291 290 290 290 290 292 294 297 298 298 298 298 298 298 298 298 299 299 300 301 302 303
284 284 283 283 283 283 283 283 284 284 285 285 286 286 286 286 286 286 286 287 287 288 289 289 290 290 289 290 290 290 290 290 290 290 290 290 289 289 289 289 290 290 290 290 290 290 290 290 290 289 289 289 290 292 294 297 298 299 299 299 299 299 299 299 300 300 301 302 303
283 283 283 283 283 283 283 283 284 285 285 285 285 285 285 285 285 286 286 287 287 288 289 290 289 289 289 290 290 290 290 290 290 290 289 289 288 289 289 289 289 289 290 290 290 290 290 290 290 289 289 289 289 291 293 295 297 298 299 299 300 300 300 300 300 300 301 301 303
283 283 283 282 282 283 283 283 284 285 285 285 285 285 285 285 285 285 286 287 288 288 289 289 288 288 289 289 290 290 289 289 289 289 289 289 288 288 288 288 289 289 289 289 289 289 289 289 289 289 289 289 289 290 292 293 295 297 298 299 300 300 301 302 301 301 301 302 303
282 282 282 282 282 282 283 284 284 284 285 284 285 285 285 285 285 285 286 287 288 288 288 288 288 288 288 289 289 289 288 288 288 288 288 288 288 288 288 288 288 288 289 289 289 288 288 288 289 289 289 289 289 291 292 292 294 295 297 298 299 300 301 302 303 303 303 303 304
282 282 282 282 282 282 283 283 284 284 284 284 284 284 284 284 285 285 286 287 287 287 288 288 288 288 288 289 288 288 288 287 288 288 288 288 288 287 287 287 288 288 289 288 289 289 289 289 289 289 289 289 290 291 292 292 293 294 295 297 298 299 300 301 302 303 305 305 306
282 282 281 282 282 282 283 283 283 283 283 283 283 284 284 284 284 285 285 286 286 287 287 288 288 289 289 289 288 288 288 287 288 288 288 287 287 287 287 287 287 288 288 289 289 289 289 289 289 289 289 289 290 290 291 291 292 293 294 295 296 298 299 300 301 302 304 306 307
282 281 281 281 282 282 282 283 283 283 283 283 283 283 283 284 284 285 285 286 286 286 287 287 288 288 288 288 288 288 287 287 287 287 287 287 287 286 286 287 287 288 288 288 289 289 289 289 289 289 289 289 289 290 290 291 291 292 293 294 295 296 297 298 299 301 302 304 306
282 281 281 281 281 282 282 282 282 282 282 282 283 283 283 283 284 285 285 286 286 286 286 287 287 287 287 287 287 287 288 288 287 287 287 287 286 286 286 286 287 287 287 288 288 288 288 288 289 289 288 289 289 290 290 291 291 292 292 293 294 295 297 297 298 299 300 302 303
282 281 281 281 281 282 282 282 282 282 282 282 282 283 283 283 284 284 285 285 285 285 286 286 286 286 286 286 287 287 288 288 287 287 286 286 286 286 286 286 286 287 287 288 288 288 288 289 289 289 289 288 289 290 290 291 291 292 292 293 294 295 295 296 296 297 298 300 299
281 281 281 281 281 282 282 282 282 281 282 282 282 283 283 283 283 284 285 285 285 285 286 286 286 286 286 286 286 287 287 287 287 287 286 286 286 286 286 286 286 286 287 287 288 288 288 289 290 290 289 288 289 290 291 291 292 292 292 293 294 294 295 295 296 296 297 298 297
281 281 281 281 282 282 282 281 281 282 282 282 282 282 283 283 283 284 285 285 285 286 286 286 286 286 286 286 286 286 286 286 287 287 286 286 286 286 286 285 286 286 286 287 287 288 288 289 290 290 289 289 290 292 293 293 293 292 293 293 294 294 295 295 296 296 297 297 297
281 281 281 281 282 282 282 281 281 282 282 282 282 282 282 283 283 284 284 284 285 285 286 286 286 286 286 286 285 285 285 285 286 286 286 286 286 286 286 285 285 285 286 287 287 287 288 289 290 290 290 291 293 295 295 294 294 293 293 294 294 294 295 295 296 296 296 297 297
Wind_Speed
7 7 7 6 6 6 6 7 7 7 7 7 8 8 8 8 9 9 9 8 9 9 9 9 9 10 11 13 14 15 15 15 15 15 16 16 16 17 17 17 16 16 16 16 16 15 14 13 12 10 8 8 8 9 9 8 9 9 9 9 9 10 11 12 13 14 15 16 13
9 9 8 8 7 7 7 7 7 7 8 8 8 9 9 9 9 9 9 10 9 9 9 9 9 11 12 14 14 14 14 15 15 15 16 16 17 17 16 16 16 16 16 16 16 14 13 13 12 10 9 8 8 9 9 9 10 10 10 11 10 9 9 10 11 13 14 15 14
9 9 9 9 9 9 8 8 8 9 10 9 9 9 9 9 9 9 9 9 10 10 9 9 10 11 13 14 13 13 14 14 15 15 15 14 15 15 16 15 16 16 16 16 15 14 13 13 12 11 9 9 9 9 9 10 10 10 11 11 10 9 8 9 10 10 11 11 13
9 10 10 10 11 11 11 9 10 11 11 10 9 9 9 8 9 9 10 10 11 11 10 10 10 11 12 12 13 14 14 14 15 15 15 14 15 15 16 15 16 16 15 15 15 15 15 14 12 10 10 11 12 11 10 9 10 10 10 10 9 9 9 9 9 9 9 9 10
10 10 10 10 12 12 11 11 12 11 11 9 9 8 8 8 9 9 10 10 10 10 10 12 11 11 11 13 14 15 15 15 15 15 15 15 15 15 15 15 15 15 14 14 14 14 14 15 12 10 10 11 11 11 11 11 11 11 10 9 9 9 9 9 9 8 8 8 8
10 11 11 11 12 12 11 11 12 12 11 10 10 10 10 9 9 10 10 10 11 12 13 14 13 13 13 15 16 16 16 15 14 14 14 16 16 15 15 15 15 14 13 12 13 13 14 13 11 10 10 10 10 11 12 13 12 11 10 10 9 9 9 9 9 9 9 9 9
11 11 11 12 12 12 11 11 12 12 12 11 12 13 13 12 12 13 13 13 12 12 12 12 12 13 14 14 15 15 15 14 14 15 15 15 16 15 15 14 14 14 13 13 13 13 13 12 11 10 10 9 8 10 11 12 11 11 11 11 10 9 9 10 9 9 9 11 12
10 11 12 13 13 13 13 13 13 12 11 10 12 13 15 15 15 15 15 14 13 12 12 11 13 14 15 15 15 15 15 15 15 15 15 15 16 16 16 15 15 14 14 13 13 13 12 11 10 10 10 9 8 9 10 12 12 13 12 12 11 10 10 9 9 9 10 12 13
10 11 12 13 13 13 13 13 13 13 12 12 14 15 16 16 16 16 15 13 12 12 12 12 14 15 16 16 16 16 15 14 15 14 14 14 15 15 15 14 14 13 13 13 13 14 14 12 11 10 10 9 9 9 10 12 14 14 14 12 11 11 11 10 10 11 12 12 14
11 12 12 12 12 13 13 13 13 14 14 15 16 16 16 15 15 14 13 12 12 12 12 13 14 15 15 16 16 15 14 14 14 14 15 15 15 15 15 14 13 13 13 12 12 13 14 12 11 11 11 10 11 11 12 13 14 15 15 11 11 12 12 12 12 12 13 12 13
13 13 12 11 12 12 13 13 13 13 13 14 15 15 15 14 14 13 12 11 12 13 13 14 14 15 15 15 15 14 14 13 13 14 14 15 14 14 14 14 14 14 13 12 12 12 11 11 11 12 13 12 12 12 13 14 15 16 16 14 14 14 15 14 13 13 12 12 14
13 13 13 12 13 13 13 13 12 11 12 13 13 13 13 13 13 13 12 12 13 14 14 14 15 15 15 14 14 14 14 14 14 14 14 14 14 14 14 14 14 14 14 13 12 11 11 11 12 13 14 14 12 11 12 15 16 17 18 17 17 16 16 16 15 13 12 12 13
12 12 13 13 13 13 13 12 11 11 11 12 12 12 11 11 12 12 12 13 14 13 13 14 14 15 15 14 14 13 13 13 13 13 13 14 14 14 14 14 14 14 14 14 13 12 12 13 14 15 16 15 13 12 13 15 16 17 18 18 18 17 17 17 16 15 14 14 14
12 12 12 13 13 13 12 12 10 10 11 12 12 11 11 11 11 11 11 12 12 12 12 13 13 13 13 14 14 14 14 13 14 15 15 15 15 15 15 14 14 14 14 13 13 14 14 14 15 16 16 16 15 14 14 15 16 17 17 18 18 18 17 17 17 16 16 15 15
12 12 12 13 13 12 12 11 10 10 10 11 11 10 10 9 9 9 10 12 12 12 12 11 11 12 13 14 14 14 14 14 15 15 16 16 16 16 16 15 15 15 14 13 13 14 15 15 16 16 16 16 16 15 15 15 16 16 17 17 18 18 17 17 17 16 16 16 15
13 13 13 13 13 12 12 11 9 9 10 10 10 10 10 9 9 9 10 12 12 11 11 12 12 12 12 13 14 14 14 14 15 15 16 16 16 16 16 16 16 15 15 15 14 14 14 15 15 15 16 16 16 16 16 16 16 16 17 17 17 18 17 17 17 17 17 17 16
13 13 13 13 13 13 12 11 10 9 10 11 11 11 10 10 9 9 10 11 11 11 12 13 12 12 12 12 13 13 13 14 14 14 14 15 15 16 16 16 16 15 15 15 15 15 15 15 15 16 16 17 17 16 16 16 16 16 17 17 17 18 18 17 17 17 17 18 17
13 13 12 12 12 13 12 12 11 11 11 11 11 11 11 11 11 11 11 12 12 13 14 14 13 13 13 13 13 12 12 13 14 14 14 14 15 15 16 16 16 15 15 16 16 16 16 17 16 16 16 17 17 16 16 16 16 16 17 17 17 17 17 17 17 17 17 17 17
13 13 12 12 12 12 12 12 12 12 11 11 11 11 12 12 13 13 13 13 13 14 14 15 14 13 13 14 14 13 12 13 14 15 15 15 16 16 16 16 16 16 16 17 17 17 17 17 17 16 16 16 16 16 16 17 16 17 17 18 18 17 17 18 18 17 17 17 17
13 12 12 11 11 11 12 12 12 12 11 11 12 12 13 13 14 14 14 14 14 14 14 15 14 14 14 14 15 14 14 13 14 15 16 16 16 16 17 17 17 17 17 18 18 18 18 17 17 16 16 16 16 16 16 17 17 17 17 17 17 18 18 18 18 18 18 18 18
12 12 11 11 11 11 12 12 12 11 11 12 13 13 14 14 14 14 14 14 14 14 14 15 15 15 15 15 15 15 14 13 13 15 15 16 16 17 17 17 17 17 17 17 18 18 19 18 18 17 16 16 16 16 16 16 16 17 17 16 17 17 18 18 18 18 18 18 18
12 11 11 11 11 11 12 12 11 12 12 12 13 14 14 14 14 14 14 14 14 14 14 15 15 15 15 15 15 15 14 13 13 13 14 14 14 15 15 15 16 16 17 17 17 18 19 19 19 18 17 16 16 16 16 15 15 16 16 17 17 18 19 19 19 18 18 18 18
13 12 12 11 11 12 12 12 12 12 12 13 14 14 14 14 14 14 14 14 14 14 14 14 14 15 15 15 15 15 14 13 13 13 13 13 13 13 13 13 13 14 14 14 14 15 16 17 18 18 17 16 16 16 16 16 15 15 15 16 17 17 18 18 18 18 18 18 18
13 13 11 10 11 12 12 12 12 13 13 13 14 14 14 14 14 14 14 14 14 14 14 13 13 14 14 14 14 14 14 14 14 14 13 13 13 13 12 11 11 11 11 10 10 11 12 12 14 15 15 15 15 15 16 16 15 15 15 15 15 15 16 17 18 18 18 18 17
13 12 12 11 12 12 12 12 13 13 13 13 13 14 14 14 14 14 13 14 14 14 14 15 14 14 13 12 13 13 13 14 14 14 14 13 12 11 11 9 9 9 8 8 9 10 11 10 10 11 12 13 14 15 15 16 16 16 15 15 14 14 14 15 16 17 18 18 17
12 12 12 12 12 12 13 13 13 13 13 13 14 14 14 14 13 13 14 14 14 14 14 14 13 12 11 11 11 12 12 12 12 13 12 11 11 10 10 8 8 7 7 8 10 11 12 13 12 10 9 10 12 13 14 14 16 16 16 16 15 14 14 13 14 15 16 16 17
12 12 12 12 13 13 13 13 13 13 13 14 14 14 13 13 12 13 13 14 14 14 14 13 12 11 10 10 11 12 12 11 11 11 11 10 10 11 10 9 8 8 8 10 11 12 13 14 15 15 13 11 11 11 12 13 14 16 16 16 16 16 15 15 14 14 14 14 16
12 12 13 13 13 13 13 13 13 13 13 13 13 13 13 13 14 14 14 14 14 13 12 11 10 8 7 8 10 11 12 11 10 9 9 9 10 11 11 10 9 9 9 11 13 13 14 15 17 18 17 15 13 11 11 12 13 14 14 14 15 16 16 16 14 13 12 13 14
13 13 13 13 13 13 13 13 13 13 13 13 13 13 13 14 14 14 14 14 14 13 11 9 8 7 7 8 9 10 11 10 9 8 8 9 10 10 10 10 10 10 11 13 14 15 15 16 18 19 19 18 14 11 10 9 10 11 12 12 13 14 15 15 13 12 12 12 13
13 13 13 13 14 14 13 13 13 13 13 12 12 13 13 13 13 13 14 14 14 12 10 8 8 8 9 10 10 10 9 8 8 8 9 10 10 10 10 10 10 10 12 14 15 17 18 18 19 20 20 20 16 14 11 10 9 10 10 11 12 14 15 15 15 14 13 12 13
13 13 13 13 14 14 14 14 13 13 13 12 13 13 13 13 13 13 13 13 13 11 10 9 10 11 11 11 10 9 8 8 8 8 9 10 10 10 10 11 11 11 12 15 16 18 19 19 20 20 20 20 16 13 12 11 11 10 10 10 12 13 14 14 15 15 15 15 14
13 13 13 13 13 14 14 14 13 13 13 13 13 13 13 13 13 13 13 12 12 11 10 10 11 11 12 11 10 9 8 9 9 9 9 9 10 10 11 11 12 12 12 15 16 17 18 19 19 20 20 20 17 15 13 13 12 11 11 11 12 13 13 12 13 15 16 17 16
13 12 13 13 13 14 14 13 13 13 13 13 13 13 13 13 13 13 12 12 11 10 10 10 11 11 11 10 9 9 9 9 9 10 10 9 10 10 11 11 10 11 12 14 16 17 18 19 19 19 18 18 16 14 13 13 12 11 11 11 12 13 13 13 12 13 15 16 16
12 12 12 13 13 13 13 13 13 12 13 13 13 13 13 13 13 13 12 11 10 10 10 10 10 10 10 9 9 9 9 8 9 9 10 9 10 10 11 10 8 10 12 15 16 17 18 19 19 18 17 15 12 11 11 12 11 11 11 12 12 12 13 13 13 12 13 14 14
12 12 13 13 13 13 13 13 13 13 13 13 13 13 13 13 13 13 12 12 11 10 10 9 9 9 9 9 9 9 9 9 10 10 9 9 9 10 11 11 10 12 14 16 17 18 18 19 19 18 16 13 10 9 9 11 11 12 13 14 13 13 13 13 13 12 12 12 12
12 13 13 13 13 13 13 13 13 13 13 13 13 13 13 13 13 12 12 12 11 11 10 10 9 9 9 9 9 9 9 9 10 9 9 9 9 10 11 12 12 13 15 17 18 18 19 20 20 19 17 13 10 8 9 9 10 12 13 14 14 14 14 14 13 13 12 11 11
12 13 13 13 14 13 13 13 13 13 13 13 13 13 13 13 12 12 11 11 11 11 10 10 9 9 9 9 9 9 9 9 9 9 9 9 9 10 11 12 13 13 15 17 18 20 21 22 21 20 17 12 10 9 9 9 9 10 12 14 14 14 14 13 13 13 13 12 12
12 12 13 13 13 13 13 13 13 13 13 13 13 12 12 12 11 11 11 10 10 11 10 10 9 9 9 9 9 9 9 9 9 9 9 9 9 10 11 13 13 13 14 17 19 22 24 24 21 17 15 11 10 9 9 8 9 10 11 12 12 13 13 11 10 11 12 14 13
12 12 12 13 13 13 13 13 13 13 13 13 12 12 12 12 11 10 10 10 10 10 10 10 9 9 8 9 8 8 9 9 9 9 9 9 9 10 12 13 13 14 15 17 20 23 25 25 18 12 11 10 10 9 8 8 9 10 10 11 11 11 12 11 10 10 11 13 14
11 11 12 12 12 12 12 12 13 13 13 12 12 12 12 12 11 11 10 10 10 10 10 9 9 9 8 8 8 9 9 9 9 9 9 9 10 11 12 12 13 14 15 18 21 24 25 25 17 6 7 9 9 9 8 8 9 10 10 10 9 10 10 10 10 9 10 11 13
11 11 12 12 12 12 12 12 13 13 12 12 12 12 11 11 11 11 11 10 11 10 9 8 9 9 9 9 8 9 9 10 10 10 9 9 9 10 11 12 13 14 15 17 21 24 25 25 20 10 1 4 7 8 8 7 8 9 10 10 9 9 8 9 9 9 9 10 10
Wind_Direction
314 312 312 313 313 310 305 301 298 297 295 294 292 291 290 289 287 286 285 284 283 283 284 284 284 285 287 289 290 291 291 292 293 294 295 296 296 296 297 297 298 298 298 298 298 298 296 295 294 291 287 283 281 281 281 279 276 272 267 263 258 254 250 246 244 243 242 243 242
318 316 316 316 312 307 301 297 294 292 291 289 288 286 284 282 280 279 277 275 274 274 274 275 274 276 277 278 279 280 280 281 282 283 285 286 288 289 291 292 293 294 295 296 296 295 293 292 292 290 287 284 281 279 278 276 278 278 277 274 268 262 256 251 247 244 243 243 243
319 317 314 310 306 301 297 293 290 288 286 283 280 277 275 273 272 271 270 269 268 268 268 268 268 268 269 269 270 270 270 271 271 272 272 274 276 278 280 283 285 287 289 291 292 293 292 293 293 291 288 286 284 282 279 277 278 280 280 278 274 269 263 257 251 247 244 242 241
316 312 308 303 298 294 290 286 283 281 279 276 274 272 271 269 269 269 269 269 270 270 270 271 271 271 270 269 268 267 267 266 266 267 267 267 267 268 269 271 275 278 281 284 287 289 291 293 292 288 285 284 283 281 278 275 275 275 276 275 274 271 267 263 258 252 246 242 240
310 306 301 295 291 287 282 278 276 275 274 274 274 273 272 271 271 272 273 274 274 275 276 277 277 277 276 275 273 272 269 266 264 264 264 264 263 263 262 262 264 267 270 274 278 282 286 288 286 283 281 281 280 278 276 276 275 274 273 273 272 271 269 266 263 259 253 247 241
302 297 292 286 283 280 277 274 274 274 275 277 277 276 276 275 276 277 278 280 280 279 279 278 276 276 275 275 275 274 273 271 267 265 263 262 262 261 260 259 260 261 263 265 268 271 275 279 278 276 275 276 276 277 278 280 279 277 274 272 270 269 268 267 265 263 260 256 249
294 290 287 283 282 279 278 277 278 279 280 280 279 278 277 277 277 278 279 280 281 280 279 277 275 274 273 272 272 271 271 271 269 267 265 264 262 260 259 258 259 260 260 261 262 263 265 267 269 270 270 270 271 272 274 276 277 275 273 270 268 267 266 266 266 266 265 263 260
291 289 287 286 285 284 283 283 284 285 284 282 280 279 278 279 280 281 282 282 280 280 279 277 276 275 275 275 274 272 271 270 268 266 265 264 263 262 260 260 260 260 259 259 259 260 260 261 262 263 264 265 264 264 265 268 270 271 270 268 267 266 265 266 266 266 266 266 265
293 291 290 288 288 287 287 287 287 286 284 281 280 280 280 281 283 284 284 283 281 280 279 278 278 279 279 279 278 277 275 274 273 271 268 266 264 262 261 261 259 257 255 254 255 256 256 257 256 257 258 259 261 262 263 264 266 268 268 268 266 264 264 265 264 264 264 264 264
294 292 290 288 288 288 289 290 288 285 283 281 281 281 282 283 284 284 283 281 281 281 280 280 282 283 282 282 281 280 279 278 277 275 273 271 267 264 262 260 256 253 250 248 249 250 252 253 252 252 252 253 257 260 262 263 264 265 267 268 267 267 266 265 264 262 261 260 260
291 289 288 288 290 290 290 290 287 285 283 281 282 283 283 283 283 282 282 281 282 281 281 283 284 284 284 283 282 281 280 280 280 279 277 276 273 269 266 262 257 253 249 246 245 246 247 248 249 249 249 249 251 255 258 259 261 262 263 264 266 268 269 269 266 263 259 256 257
289 289 290 290 291 290 289 287 284 282 280 280 282 283 284 284 284 284 284 284 283 283 283 283 284 284 283 282 281 280 280 280 280 281 280 280 278 276 272 267 262 257 252 248 245 244 244 244 246 247 248 247 246 248 251 254 257 259 260 261 262 264 266 268 268 265 260 254 253
290 291 292 293 291 289 286 283 281 280 280 281 283 285 286 287 288 288 287 286 284 283 283 282 281 281 280 279 279 278 278 278 278 278 279 279 279 278 276 272 266 260 254 249 245 242 240 241 243 245 246 245 243 243 244 248 251 254 255 257 257 259 261 264 266 266 263 256 252
292 292 292 291 289 287 285 282 281 281 282 284 286 288 289 290 290 289 287 285 283 282 280 278 276 275 274 275 275 274 273 272 272 272 272 273 273 273 273 271 267 261 256 249 244 240 239 239 241 242 244 244 243 242 242 243 246 249 251 252 253 254 256 259 262 264 264 259 251
293 292 290 288 287 285 284 284 283 285 286 288 289 291 291 290 288 286 284 282 281 279 277 275 272 271 270 271 271 270 269 267 266 265 265 265 266 266 266 265 264 261 257 252 247 242 240 240 240 241 243 243 243 242 241 241 244 246 248 249 250 251 253 254 258 261 263 261 253
293 291 289 287 287 286 286 287 287 289 290 291 293 293 291 289 286 284 282 281 280 278 275 273 272 271 270 269 268 268 267 266 263 262 261 260 260 260 260 260 260 260 258 256 253 249 244 241 240 240 241 242 242 242 242 242 244 245 247 248 249 250 250 251 253 257 261 262 256
292 290 289 288 289 290 291 292 292 293 294 295 295 294 292 290 287 285 283 282 281 278 276 274 273 272 271 270 268 267 267 265 263 261 259 258 258 258 257 257 257 257 257 257 255 253 249 245 242 240 239 240 241 241 241 241 243 245 247 248 248 248 249 249 250 253 258 262 260
291 290 290 291 293 295 296 297 297 298 298 298 298 296 295 293 291 288 286 284 281 279 277 276 274 272 271 270 268 266 264 263 262 260 259 258 257 257 256 255 254 254 254 254 254 253 251 248 244 241 238 238 238 238 239 240 242 244 246 248 248 248 248 248 248 250 254 259 261
292 292 294 296 298 300 301 302 302 303 303 302 301 300 298 296 294 292 289 286 283 281 279 278 276 274 272 271 269 266 263 262 262 261 260 258 257 256 255 254 252 251 250 250 251 251 251 249 246 243 239 236 236 235 236 237 238 240 242 245 246 247 247 247 247 247 250 254 259
294 297 300 302 303 304 305 305 306 307 307 305 304 301 299 296 294 292 290 288 285 283 282 280 279 277 275 273 271 268 265 263 262 261 260 258 257 255 254 253 252 250 249 248 247 247 248 248 247 244 241 238 236 235 235 235 236 237 238 240 243 244 245 246 246 246 247 250 255
300 303 305 307 307 306 307 308 309 309 308 306 303 300 297 294 292 291 289 288 287 286 284 282 281 279 278 276 273 271 268 264 262 261 260 258 256 255 253 252 250 248 247 245 244 243 243 243 243 242 241 239 238 237 235 235 235 234 234 235 237 239 242 244 245 245 246 247 250
307 308 309 309 308 308 309 310 311 310 308 305 301 298 295 293 292 291 290 290 289 288 286 284 282 281 279 277 275 273 270 267 265 263 262 261 258 256 255 253 251 249 247 244 242 240 239 238 238 237 237 237 236 236 236 236 236 235 233 232 232 234 236 239 242 243 244 244 247
311 311 311 310 310 311 312 313 313 310 307 303 300 298 296 294 293 293 293 293 291 290 288 286 284 282 280 278 277 276 275 274 273 271 270 269 267 266 264 262 259 256 254 250 244 240 237 235 234 232 232 232 233 234 235 236 237 237 236 234 232 230 231 233 237 240 241 243 245
312 313 312 311 313 315 315 315 313 309 306 302 300 298 297 296 296 295 294 294 293 291 290 288 285 283 282 281 281 281 281 281 280 279 277 275 274 273 271 270 268 266 264 262 256 249 242 236 232 229 227 227 229 230 232 233 236 238 240 240 238 234 230 228 231 235 238 240 242
313 313 314 314 316 317 316 315 311 307 304 302 300 299 299 298 298 297 296 295 294 293 291 289 287 285 284 284 284 284 284 282 281 279 278 277 276 276 276 275 274 272 272 271 271 269 265 258 247 235 228 224 224 225 227 229 232 235 238 242 243 242 238 231 229 230 233 237 239
315 316 317 318 319 317 316 313 309 306 304 302 301 300 300 299 298 297 297 296 295 293 292 290 288 287 285 286 286 284 282 280 279 279 281 283 286 288 288 287 284 281 278 277 279 283 285 286 280 269 253 237 227 224 223 225 226 229 233 238 242 244 245 241 232 229 229 233 236
318 319 319 320 319 317 314 311 308 306 304 303 302 301 301 301 300 299 298 297 296 295 293 290 288 287 285 286 285 284 283 282 283 286 290 295 297 298 296 292 288 284 280 278 279 282 286 290 290 288 283 271 251 234 224 221 222 224 227 231 235 239 242 244 240 234 230 231 234
321 321 321 320 318 316 313 311 308 306 304 303 303 303 303 303 302 302 301 300 299 297 295 291 290 289 288 288 287 287 288 289 293 296 299 301 298 294 291 287 284 282 281 280 278 278 278 279 282 283 283 282 276 261 242 226 220 219 221 224 228 232 236 240 241 238 235 233 234
322 322 321 320 318 316 314 311 309 307 305 304 304 305 305 306 305 305 303 302 301 299 297 294 294 295 294 293 291 290 292 296 300 302 302 298 292 288 285 283 283 283 283 283 282 279 276 273 272 272 273 274 274 271 261 242 227 218 216 218 221 225 229 233 235 236 236 235 236
323 322 321 320 318 316 314 312 309 308 307 306 307 308 308 308 307 307 306 304 301 298 296 297 300 300 299 295 293 293 296 303 307 307 303 298 294 291 290 289 289 288 286 284 282 279 276 272 268 266 265 265 265 266 266 260 244 229 219 216 218 220 223 227 230 232 234 235 236
322 321 320 319 318 316 315 312 310 310 310 311 311 311 311 310 310 309 307 304 301 298 298 301 303 302 299 295 294 297 305 312 312 308 303 299 298 297 297 296 294 290 286 284 281 279 277 273 268 264 261 259 258 258 259 261 256 245 231 221 219 218 220 222 225 227 230 232 235
321 321 321 320 319 317 315 313 313 313 314 315 314 314 313 312 312 310 308 305 302 302 304 307 306 303 300 298 301 308 314 315 311 305 301 298 299 300 300 298 295 291 287 285 282 280 279 277 273 267 261 255 253 251 251 254 255 253 246 236 227 222 220 219 220 222 225 228 232
322 322 322 321 319 318 316 315 316 317 318 318 317 317 316 315 314 312 309 307 307 308 309 309 306 304 303 306 311 314 314 310 305 301 299 298 299 300 299 297 295 291 288 285 283 281 279 278 277 272 265 255 250 246 245 245 249 251 250 244 236 230 227 225 223 221 221 224 229
324 324 324 323 321 319 318 318 320 321 321 320 319 319 318 317 316 314 313 312 311 311 309 307 305 305 306 311 313 313 310 306 303 302 301 300 300 301 301 300 297 294 291 288 284 282 280 278 277 274 269 259 252 245 242 241 243 245 246 247 242 236 233 233 233 230 227 225 228
326 326 326 324 322 321 321 322 323 324 324 322 321 320 320 319 318 316 315 314 312 310 308 306 306 307 309 312 311 309 307 305 305 304 304 303 303 303 304 303 301 299 297 294 290 287 284 281 277 273 268 260 253 245 241 239 239 240 241 243 242 239 236 236 239 240 240 237 237
327 328 328 326 324 323 323 325 326 326 325 323 322 321 321 321 319 317 315 314 312 310 309 308 310 311 312 313 311 309 308 307 308 308 307 306 306 307 308 308 307 305 303 301 298 295 292 287 279 271 263 254 245 238 234 233 234 234 235 237 238 237 235 234 238 242 246 249 250
329 329 328 326 324 324 325 327 328 328 326 323 322 322 322 321 319 317 316 315 313 312 311 312 313 314 315 314 312 310 310 311 311 311 310 309 310 312 313 314 313 311 309 307 305 304 300 295 283 270 257 244 234 228 225 224 226 227 228 230 232 232 232 232 236 240 245 249 254
329 329 328 326 325 325 327 329 330 328 325 323 322 323 323 322 320 319 318 317 316 315 314 314 315 316 316 315 313 313 314 317 317 316 314 313 314 316 318 320 318 316 314 313 313 313 311 307 292 270 246 227 221 218 217 217 218 219 220 221 224 224 225 226 230 236 242 246 250
329 328 327 325 325 326 329 331 330 328 325 324 324 325 326 325 324 322 322 320 319 318 317 316 318 319 320 320 320 321 323 325 324 321 318 317 318 321 323 324 322 320 319 319 321 323 323 322 308 273 227 208 209 210 211 212 212 213 213 213 215 216 218 220 223 231 238 243 248
327 327 326 325 326 328 331 333 331 329 327 327 329 330 330 329 327 326 325 324 324 322 320 319 322 326 329 330 329 329 330 331 329 326 323 321 323 326 328 328 326 325 324 326 329 332 336 339 338 313 202 193 200 205 207 207 206 206 206 205 205 207 210 213 217 224 232 239 245
327 327 327 326 328 331 334 334 333 331 331 333 335 335 333 332 331 331 332 331 330 329 327 327 331 336 340 341 338 336 336 334 332 330 328 327 329 332 334 333 331 330 330 332 336 340 346 353 0 8 34 201 205 203 201 200 199 199 199 198 197 198 202 206 211 218 226 232 239